Regional Weather Roundup
Issued by NWS

Home | Current Version | Previous Version | Graphics & Text | Print | Product List | Glossary On
Versions: 1 2 3 4 5 6 7 8 9 10 11 12 13 14 15 16 17 18 19 20 21 22 23 24 25 26 27 28 29 30 31 32 33 34 35 36 37 38 39 40 41 42 43 44 45 46 47 48 49 50
000
ASUS43 KFSD 270302
RWRSD

WEATHER ROUNDUP FOR SOUTH DAKOTA
NATIONAL WEATHER SERVICE SIOUX FALLS SD
1000 PM CDT WED APR 26 2017

NOTE: "FAIR" INDICATES FEW OR NO CLOUDS BELOW 12,000 FEET WITH NO
SIGNIFICANT WEATHER AND/OR OBSTRUCTIONS TO VISIBILITY.


SDZ001>005-009-010-012>017-270400-
NORTHWEST AND NORTH CENTRAL SOUTH DAKOTA

CITY           SKY/WX    TMP DP  RH WIND       PRES   REMARKS
BUFFALO          N/A     42  26  53 E3        29.65R
FAITH            N/A     37  27  67 NE7       29.71R
MOBRIDGE       CLEAR     31  23  72 NE8       29.72R WCI  23
$$

SDZ012>016-024>037-041>051-057-063-072>074-270400-
SOUTHWEST AND SOUTH CENTRAL SOUTH DAKOTA

CITY           SKY/WX    TMP DP  RH WIND       PRES   REMARKS
RAPID CTY ARPT CLEAR     32  27  81 W6        29.73S WCI  26
PIERRE         CLEAR     32  25  75 NE7       29.72R WCI  26
CUSTER         CLOUDY    32  30  92 CALM      29.68S
ELLSWORTH AFB  CLEAR     33  30  89 W8        29.72S WCI  26
PHILIP         CLEAR     35  30  82 W8        29.72R WCI  29
PINE RIDGE     CLEAR     33  29  85 E3        29.73R
SPEARFISH      FAIR      30  28  93 S5        29.72S WCI  25
WINNER         FAIR      34  27  75 E5        29.71R WCI  30
$$

SDZ004>011-016>023-039-040-270400-
NORTHEAST SOUTH DAKOTA

CITY           SKY/WX    TMP DP  RH WIND       PRES   REMARKS
ABERDEEN       CLOUDY    29  23  78 N16       29.75S WCI  17
WATERTOWN      CLOUDY    27  23  85 N18       29.67S WCI  14
BROOKINGS      CLOUDY    29  25  85 N15       29.68R WCI  18
SISSETON         N/A     30  27  88 N20       29.70S WCI  17
$$

SDZ017-020-022-023-036>040-048>070-270400-
SOUTHEAST SOUTH DAKOTA

CITY           SKY/WX    TMP DP  RH WIND       PRES   REMARKS
SIOUX FALLS    CLOUDY    33  27  78 N14       29.68R WCI  23
HURON          CLOUDY    32  26  78 N16       29.72S WCI  21
CHAMBERLAIN    CLEAR     35  30  80 CALM      29.73R
MITCHELL       CLOUDY    34  27  75 N15       29.72S WCI  24
YANKTON        CLOUDY    36  27  69 N14G22    29.71R
$$

ABBREVIATIONS USED IN REMARKS
   TC - TEMPERATURE IN CELSIUS
  WCI - WIND CHILL INDEX
   HX - HEAT INDEX
  VSB - VISIBILITY





USA.gov is the U.S. government's official web portal to all federal, state and local government web resources and services.